Weather Service Report


166 
ASUS41 KCTP 280210
RWRCTP

REGIONAL WEATHER ROUNDUP
NATIONAL WEATHER SERVICE STATE COLLEGE PA
1000 PM EDT MON MAR 27 2017

Note: "fair" indicates few or no clouds below 12,000 feet with no 
significant weather and/or obstructions to visibility.

* = STATION THAT DOES NOT REPORT PRECIPITATION /E.G. RAIN...SNOW...ETC/
    THUNDER OR FOG.

PAZ002>004-007>009-013>016-020>023-029>032-280300-
WESTERN PENNSYLVANIA
  
CITY           SKY/WX    TMP DP  RH WIND       PRES   REMARKS
ERIE           PTCLDY    48  45  89 S3        29.93R                  
MEADVILLE      PTCLDY    50  46  86 N7        29.93R                  
FRANKLIN*      PTCLDY    54  43  66 CALM      29.94R                  
NEW CASTLE     FAIR      54  47  77 E3        29.92R                  
BEAVER COUNTY  NOT AVBL                                               
BUTLER*        CLOUDY    55  48  76 CALM      29.92S                  
PITTSBURGH INT CLOUDY    60  50  69 CALM      29.90S                  
PITTSBURGH     CLOUDY    64  47  53 SW3       29.90S                  
INDIANA*       PTCLDY    55  50  82 CALM      29.95R                  
LATROBE        CLEAR     57  50  77 CALM      29.92S                  
WASHINGTON CO* CLOUDY    55  48  76 CALM      29.92S                  
$$

PAZ004>006-010>012-017>019-024>028-033>037-041-042-045-046-049>053-280300-
CENTRAL PENNSYLVANIA
  
CITY           SKY/WX    TMP DP  RH WIND       PRES   REMARKS
BRADFORD       CLOUDY    49  46  90 CALM      29.93R                  
DUBOIS         PTCLDY    56  44  64 CALM      29.92R                  
CLEARFIELD       N/A    N/A N/A N/A MISG      29.93R                  
JOHNSTOWN      PTCLDY    58  48  69 SW5       29.94R                  
ALTOONA        MOCLDY    60  49  66 S6        29.94R                  
STATE COLLEGE  NOT AVBL                                               
WILLIAMSPORT   MOCLDY    50  46  86 CALM      29.94S                  
SELINSGROVE    CLOUDY    50  49  96 CALM      29.95R                  
FT INDIANTOWN  MOCLDY    50  50 100 NE5       29.96R                  
CAPITAL CITY   PTCLDY    54  48  80 E3        29.95S                  
HARRISBURG     CLOUDY    52  50  93 CALM      29.94F                  
YORK           CLOUDY    52  51  97 CALM      29.94S FOG              
$$

PAZ038>040-043-044-047-048-054-055-060>062-067>071-280300-
EASTERN PENNSYLVANIA
  
CITY           SKY/WX    TMP DP  RH WIND       PRES   REMARKS
SCRANTON       CLOUDY    50  46  86 E9        29.96R                  
MOUNT POCONO   PTCLDY    39  39 100 NE3       29.97S                  
ALLENTOWN      MOCLDY    48  45  89 NE3       29.98S FOG              
QUAKERTOWN*    MOCLDY    46  46 100 CALM      29.99S                  
READING        PTCLDY    50  50 100 CALM      29.97R FOG              
LANCASTER      PTCLDY    52  52 100 E5        29.95S FOG              
COATESVILLE    MOCLDY    55  54  94 E5        29.98S                  
POTTSTOWN      CLOUDY    50  48  93 E3        29.98S FOG              
BLUE BELL        N/A     45  45 100 CALM      29.97S VSB 3/4          
DOYLESTOWN     MOCLDY    48  48 100 NE3       29.97S                  
WILLOW GROVE   NOT AVBL                                               
NORTH PHILA    CLOUDY    51  49  92 E5        30.00R FOG              
PHILADELPHIA   CLOUDY    52  50  93 E8        29.98R                  
$$
  

Return to Home page


Western Regional Climate Center, wrcc@dri.edu